Simultaneous Nadir Overpasses (SNOs) Predictions

Prediction of SNOs between METOP-A and NOAA-19 Satellite Orbit:

Table of predicted SNOs for the next 14.0 days since TLE Epoch: 3/21/2014
Index Date (METOP-A) Time (METOP-A) Lat,Lon (METOP-A) SZA (METOP-A ) Date (NOAA-19) Time (NOAA-19) Lat,Lon (NOAA-19) SZA (NOAA-19 ) Distance(km) Time Diff (sec)
1 03/28/2014 14:00:53 -74.04, 143.95 109.02 03/28/2014 13:59:43 -74.02, 143.94 109.03 2.27 70
2 03/28/2014 14:51:33 74.01, -48.78 70.94 03/28/2014 14:50:40 74.01, -48.76 70.94 1.08 53
3 03/28/2014 15:42:16 -73.97, 118.43 109.12 03/28/2014 15:41:46 -73.98, 118.52 109.10 3.27 30
4 03/28/2014 16:32:55 73.99, -74.18 70.89 03/28/2014 16:32:43 73.97, -74.17 70.87 2.45 12
5 03/28/2014 17:23:38 -73.94, 93.03 109.17 03/28/2014 17:23:49 -73.94, 93.11 109.17 2.41 11
6
